Data supplied by UK-AIR on 21/1/2015
All Data GMT hour ending 
Status: R =Ratified P=Provisional,P*=As supplied
,,Swansea Roadside,,,,,,,,,,,,,,,,,,,,,,,
Date,time,"PM<sub>10</sub> particulate matter (Hourly measured)",status,unit,"Nitric oxide",status,unit,"Nitrogen dioxide",status,unit,"Nitrogen oxides as nitrogen dioxide",status,unit,"PM<sub>2.5</sub> particulate matter (Hourly measured)",status,unit
 
01-01-2013,01:00,11.507,R,ugm-3 (Ref.eq),,,,,,,,,,6.000,R,ugm-3 (BAM)
01-01-2013,02:00,14.965,R,ugm-3 (Ref.eq),,,,,,,,,,7.000,R,ugm-3 (BAM)
01-01-2013,03:00,10.896,R,ugm-3 (Ref.eq),17.52519,R,ugm-3,40.80319,R,ugm-3,69.06038,R,ugm-3,5.000,R,ugm-3 (BAM)
01-01-2013,04:00,19.848,R,ugm-3 (Ref.eq),33.48626,R,ugm-3,85.50740,R,ugm-3,137.40595,R,ugm-3,7.000,R,ugm-3 (BAM)
01-01-2013,05:00,12.931,R,ugm-3 (Ref.eq),22.11089,R,ugm-3,62.99010,R,ugm-3,97.92717,R,ugm-3,9.000,R,ugm-3 (BAM)
01-01-2013,06:00,13.134,R,ugm-3 (Ref.eq),14.11258,R,ugm-3,56.27627,R,ugm-3,79.17750,R,ugm-3,4.000,R,ugm-3 (BAM)
01-01-2013,07:00,10.693,R,ugm-3 (Ref.eq),7.42954,R,ugm-3,33.29854,R,ugm-3,46.35183,R,ugm-3,0.000,R,ugm-3 (BAM)
01-01-2013,08:00,9.269,R,ugm-3 (Ref.eq),4.44351,R,ugm-3,24.01861,R,ugm-3,32.66072,R,ugm-3,-1.000,R,ugm-3 (BAM)
01-01-2013,09:00,8.862,R,ugm-3 (Ref.eq),16.63649,R,ugm-3,51.51606,R,ugm-3,78.29775,R,ugm-3,0.000,R,ugm-3 (BAM)
01-01-2013,10:00,11.100,R,ugm-3 (Ref.eq),9.10030,R,ugm-3,27.34110,R,ugm-3,42.99778,R,ugm-3,2.000,R,ugm-3 (BAM)
01-01-2013,11:00,11.507,R,ugm-3 (Ref.eq),2.38172,R,ugm-3,11.15227,R,ugm-3,16.82522,R,ugm-3,3.000,R,ugm-3 (BAM)
01-01-2013,12:00,13.338,R,ugm-3 (Ref.eq),2.77275,R,ugm-3,9.66147,R,ugm-3,15.94547,R,ugm-3,4.000,R,ugm-3 (BAM)
01-01-2013,13:00,10.490,R,ugm-3 (Ref.eq),3.05713,R,ugm-3,10.17163,R,ugm-3,16.88020,R,ugm-3,4.000,R,ugm-3 (BAM)
01-01-2013,14:00,13.338,R,ugm-3 (Ref.eq),3.37707,R,ugm-3,9.95982,R,ugm-3,17.15513,R,ugm-3,5.000,R,ugm-3 (BAM)
01-01-2013,15:00,18.423,R,ugm-3 (Ref.eq),5.15447,R,ugm-3,16.58472,R,ugm-3,26.39250,R,ugm-3,6.000,R,ugm-3 (BAM)
01-01-2013,16:00,14.355,R,ugm-3 (Ref.eq),3.02158,R,ugm-3,13.95551,R,ugm-3,20.56416,R,ugm-3,6.000,R,ugm-3 (BAM)
01-01-2013,17:00,16.186,R,ugm-3 (Ref.eq),3.16378,R,ugm-3,18.96913,R,ugm-3,25.73269,R,ugm-3,4.000,R,ugm-3 (BAM)
01-01-2013,18:00,17.407,R,ugm-3 (Ref.eq),4.37241,R,ugm-3,29.80488,R,ugm-3,38.26913,R,ugm-3,6.000,R,ugm-3 (BAM)
01-01-2013,19:00,22.086,R,ugm-3 (Ref.eq),48.73638,R,ugm-3,78.15288,R,ugm-3,153.24145,R,ugm-3,10.000,R,ugm-3 (BAM)
01-01-2013,20:00,24.934,R,ugm-3 (Ref.eq),82.61367,R,ugm-3,89.70916,R,ugm-3,215.97863,R,ugm-3,13.000,R,ugm-3 (BAM)
01-01-2013,21:00,20.051,R,ugm-3 (Ref.eq),18.20060,R,ugm-3,45.44435,R,ugm-3,74.66878,R,ugm-3,10.000,R,ugm-3 (BAM)
01-01-2013,22:00,23.917,R,ugm-3 (Ref.eq),3.37707,R,ugm-3,24.03965,R,ugm-3,31.06617,R,ugm-3,8.000,R,ugm-3 (BAM)
01-01-2013,23:00,15.983,R,ugm-3 (Ref.eq),1.81295,R,ugm-3,15.69732,R,ugm-3,20.45419,R,ugm-3,8.000,R,ugm-3 (BAM)
01-01-2013,24:00,26.155,R,ugm-3 (Ref.eq),1.52857,R,ugm-3,11.12453,R,ugm-3,15.50559,R,ugm-3,7.000,R,ugm-3 (BAM)
02-01-2013,01:00,22.899,R,ugm-3 (Ref.eq),2.03809,R,ugm-3,11.65478,R,ugm-3,16.78856,R,ugm-3,6.000,R,ugm-3 (BAM)
02-01-2013,02:00,17.407,R,ugm-3 (Ref.eq),1.84850,R,ugm-3,12.98492,R,ugm-3,17.81494,R,ugm-3,3.000,R,ugm-3 (BAM)
02-01-2013,03:00,16.999,R,ugm-3 (Ref.eq),3.34152,R,ugm-3,13.59166,R,ugm-3,20.67413,R,ugm-3,3.000,R,ugm-3 (BAM)
02-01-2013,04:00,17.813,R,ugm-3 (Ref.eq),12.58401,R,ugm-3,33.23160,R,ugm-3,54.04964,R,ugm-3,5.000,R,ugm-3 (BAM)
02-01-2013,05:00,17.610,R,ugm-3 (Ref.eq),9.27804,R,ugm-3,30.00043,R,ugm-3,45.85697,R,ugm-3,5.000,R,ugm-3 (BAM)
02-01-2013,06:00,16.796,R,ugm-3 (Ref.eq),23.81719,R,ugm-3,46.81035,R,ugm-3,84.45600,R,ugm-3,3.000,R,ugm-3 (BAM)
02-01-2013,07:00,18.831,R,ugm-3 (Ref.eq),35.22812,R,ugm-3,47.02742,R,ugm-3,101.94103,R,ugm-3,4.000,R,ugm-3 (BAM)
02-01-2013,08:00,25.341,R,ugm-3 (Ref.eq),93.24254,R,ugm-3,98.38522,R,ugm-3,240.44667,R,ugm-3,16.000,R,ugm-3 (BAM)
02-01-2013,09:00,7.438,R,ugm-3 (Ref.eq),57.62339,R,ugm-3,61.64944,R,ugm-3,150.27230,R,ugm-3,3.000,R,ugm-3 (BAM)
02-01-2013,10:00,6.217,R,ugm-3 (Ref.eq),10.23784,R,ugm-3,29.30858,R,ugm-3,46.62675,R,ugm-3,3.000,R,ugm-3 (BAM)
02-01-2013,11:00,4.996,R,ugm-3 (Ref.eq),9.27804,R,ugm-3,19.13934,R,ugm-3,35.13502,R,ugm-3,3.000,R,ugm-3 (BAM)
02-01-2013,12:00,2.962,R,ugm-3 (Ref.eq),7.92722,R,ugm-3,21.37793,R,ugm-3,35.29997,R,ugm-3,2.000,R,ugm-3 (BAM)
02-01-2013,13:00,2.352,R,ugm-3 (Ref.eq),4.33686,R,ugm-3,15.40806,R,ugm-3,23.97319,R,ugm-3,0.000,R,ugm-3 (BAM)
02-01-2013,14:00,5.811,R,ugm-3 (Ref.eq),5.72324,R,ugm-3,17.45969,R,ugm-3,28.09702,R,ugm-3,2.000,R,ugm-3 (BAM)
02-01-2013,15:00,9.065,R,ugm-3 (Ref.eq),11.01990,R,ugm-3,30.78312,R,ugm-3,49.26600,R,ugm-3,3.000,R,ugm-3 (BAM)
02-01-2013,16:00,15.169,R,ugm-3 (Ref.eq),11.23318,R,ugm-3,32.07167,R,ugm-3,50.86055,R,ugm-3,6.000,R,ugm-3 (BAM)
02-01-2013,17:00,7.845,R,ugm-3 (Ref.eq),21.93315,R,ugm-3,45.46586,R,ugm-3,80.27719,R,ugm-3,6.000,R,ugm-3 (BAM)
02-01-2013,18:00,7.235,R,ugm-3 (Ref.eq),17.56074,R,ugm-3,43.87084,R,ugm-3,72.08452,R,ugm-3,5.000,R,ugm-3 (BAM)
02-01-2013,19:00,6.217,R,ugm-3 (Ref.eq),7.99831,R,ugm-3,27.61841,R,ugm-3,41.56819,R,ugm-3,5.000,R,ugm-3 (BAM)
02-01-2013,20:00,3.979,R,ugm-3 (Ref.eq),7.60728,R,ugm-3,24.20747,R,ugm-3,37.60931,R,ugm-3,5.000,R,ugm-3 (BAM)
02-01-2013,21:00,4.793,R,ugm-3 (Ref.eq),3.66145,R,ugm-3,15.49651,R,ugm-3,23.03845,R,ugm-3,4.000,R,ugm-3 (BAM)
02-01-2013,22:00,7.031,R,ugm-3 (Ref.eq),3.76809,R,ugm-3,12.77072,R,ugm-3,20.50917,R,ugm-3,4.000,R,ugm-3 (BAM)
02-01-2013,23:00,5.811,R,ugm-3 (Ref.eq),2.66610,R,ugm-3,11.00739,R,ugm-3,17.10014,R,ugm-3,3.000,R,ugm-3 (BAM)
02-01-2013,24:00,5.811,R,ugm-3 (Ref.eq),2.59501,R,ugm-3,11.50560,R,ugm-3,17.48503,R,ugm-3,3.000,R,ugm-3 (BAM)
03-01-2013,01:00,6.624,R,ugm-3 (Ref.eq),1.46932,R,ugm-3,6.73391,R,ugm-3,11.07019,R,ugm-3,4.000,R,ugm-3 (BAM)
03-01-2013,02:00,5.811,R,ugm-3 (Ref.eq),1.80110,R,ugm-3,3.32839,R,ugm-3,8.21100,R,ugm-3,3.000,R,ugm-3 (BAM)
03-01-2013,03:00,3.369,R,ugm-3 (Ref.eq),1.17309,R,ugm-3,2.65790,R,ugm-3,6.59813,R,ugm-3,2.000,R,ugm-3 (BAM)
03-01-2013,04:00,3.166,R,ugm-3 (Ref.eq),1.03089,R,ugm-3,3.15419,R,ugm-3,6.87305,R,ugm-3,3.000,R,ugm-3 (BAM)
03-01-2013,05:00,1.538,R,ugm-3 (Ref.eq),1.77740,R,ugm-3,4.62729,R,ugm-3,9.45731,R,ugm-3,1.000,R,ugm-3 (BAM)
03-01-2013,06:00,0.927,R,ugm-3 (Ref.eq),5.61659,R,ugm-3,17.79055,R,ugm-3,28.26197,R,ugm-3,1.000,R,ugm-3 (BAM)
03-01-2013,07:00,4.590,R,ugm-3 (Ref.eq),14.53915,R,ugm-3,29.34253,R,ugm-3,53.16989,R,ugm-3,2.000,R,ugm-3 (BAM)
03-01-2013,08:00,6.827,R,ugm-3 (Ref.eq),42.87095,R,ugm-3,59.53852,R,ugm-3,125.85923,R,ugm-3,3.000,R,ugm-3 (BAM)
03-01-2013,09:00,8.862,R,ugm-3 (Ref.eq),56.16592,R,ugm-3,79.31424,R,ugm-3,165.50297,R,ugm-3,4.000,R,ugm-3 (BAM)
03-01-2013,10:00,10.083,R,ugm-3 (Ref.eq),52.54002,R,ugm-3,61.47875,R,ugm-3,142.40953,R,ugm-3,4.000,R,ugm-3 (BAM)
03-01-2013,11:00,7.845,R,ugm-3 (Ref.eq),26.83878,R,ugm-3,51.36784,R,ugm-3,93.52842,R,ugm-3,6.000,R,ugm-3 (BAM)
03-01-2013,12:00,4.590,R,ugm-3 (Ref.eq),22.18198,R,ugm-3,39.34730,R,ugm-3,74.61380,R,ugm-3,4.000,R,ugm-3 (BAM)
03-01-2013,13:00,6.014,R,ugm-3 (Ref.eq),32.63311,R,ugm-3,45.65807,R,ugm-3,96.66253,R,ugm-3,5.000,R,ugm-3 (BAM)
03-01-2013,14:00,6.421,R,ugm-3 (Ref.eq),34.19722,R,ugm-3,42.64779,R,ugm-3,96.05770,R,ugm-3,5.000,R,ugm-3 (BAM)
03-01-2013,15:00,6.217,R,ugm-3 (Ref.eq),27.97632,R,ugm-3,50.29206,R,ugm-3,94.18823,R,ugm-3,4.000,R,ugm-3 (BAM)
03-01-2013,16:00,7.235,R,ugm-3 (Ref.eq),22.67966,R,ugm-3,52.78787,R,ugm-3,88.63481,R,ugm-3,4.000,R,ugm-3 (BAM)
03-01-2013,17:00,8.251,R,ugm-3 (Ref.eq),26.41220,R,ugm-3,50.85290,R,ugm-3,92.37375,R,ugm-3,4.000,R,ugm-3 (BAM)
03-01-2013,18:00,8.455,R,ugm-3 (Ref.eq),27.26535,R,ugm-3,57.89950,R,ugm-3,100.62141,R,ugm-3,6.000,R,ugm-3 (BAM)
03-01-2013,19:00,5.200,R,ugm-3 (Ref.eq),11.33983,R,ugm-3,31.40612,R,ugm-3,50.36569,R,ugm-3,6.000,R,ugm-3 (BAM)
03-01-2013,20:00,6.827,R,ugm-3 (Ref.eq),7.71393,R,ugm-3,22.26150,R,ugm-3,35.84981,R,ugm-3,3.000,R,ugm-3 (BAM)
03-01-2013,21:00,10.490,R,ugm-3 (Ref.eq),6.75413,R,ugm-3,21.05949,R,ugm-3,33.21056,R,ugm-3,3.000,R,ugm-3 (BAM)
03-01-2013,22:00,11.303,R,ugm-3 (Ref.eq),2.66610,R,ugm-3,9.83742,R,ugm-3,15.94547,R,ugm-3,6.000,R,ugm-3 (BAM)
03-01-2013,23:00,11.303,R,ugm-3 (Ref.eq),2.55946,R,ugm-3,8.60864,R,ugm-3,14.57086,R,ugm-3,4.000,R,ugm-3 (BAM)
03-01-2013,24:00,10.286,R,ugm-3 (Ref.eq),2.34617,R,ugm-3,7.54290,R,ugm-3,13.19625,R,ugm-3,2.000,R,ugm-3 (BAM)
04-01-2013,01:00,10.083,R,ugm-3 (Ref.eq),3.12823,R,ugm-3,10.88786,R,ugm-3,17.66831,R,ugm-3,2.000,R,ugm-3 (BAM)
04-01-2013,02:00,11.303,R,ugm-3 (Ref.eq),0.99535,R,ugm-3,2.76643,R,ugm-3,6.43317,R,ugm-3,1.000,R,ugm-3 (BAM)
04-01-2013,03:00,12.931,R,ugm-3 (Ref.eq),1.03089,R,ugm-3,2.60052,R,ugm-3,6.32320,R,ugm-3,3.000,R,ugm-3 (BAM)
04-01-2013,04:00,10.490,R,ugm-3 (Ref.eq),1.20863,R,ugm-3,2.27205,R,ugm-3,6.26822,R,ugm-3,2.000,R,ugm-3 (BAM)
04-01-2013,05:00,11.100,R,ugm-3 (Ref.eq),1.06644,R,ugm-3,3.82835,R,ugm-3,7.58784,R,ugm-3,2.000,R,ugm-3 (BAM)
04-01-2013,06:00,13.744,R,ugm-3 (Ref.eq),5.65214,R,ugm-3,11.18048,R,ugm-3,21.77381,R,ugm-3,5.000,R,ugm-3 (BAM)
04-01-2013,07:00,7.235,R,ugm-3 (Ref.eq),7.82057,R,ugm-3,12.59429,R,ugm-3,26.44748,R,ugm-3,4.000,R,ugm-3 (BAM)
04-01-2013,08:00,7.641,R,ugm-3 (Ref.eq),22.64411,R,ugm-3,41.37694,R,ugm-3,77.25305,R,ugm-3,3.000,R,ugm-3 (BAM)
04-01-2013,09:00,7.031,R,ugm-3 (Ref.eq),26.62549,R,ugm-3,57.12685,R,ugm-3,98.80692,R,ugm-3,4.000,R,ugm-3 (BAM)
04-01-2013,10:00,7.031,R,ugm-3 (Ref.eq),59.15196,R,ugm-3,71.58774,R,ugm-3,162.25889,R,ugm-3,4.000,R,ugm-3 (BAM)
04-01-2013,11:00,6.827,R,ugm-3 (Ref.eq),34.16168,R,ugm-3,60.34416,R,ugm-3,113.37778,R,ugm-3,4.000,R,ugm-3 (BAM)
04-01-2013,12:00,8.048,R,ugm-3 (Ref.eq),29.25605,R,ugm-3,50.08264,R,ugm-3,95.83777,R,ugm-3,4.000,R,ugm-3 (BAM)
04-01-2013,13:00,17.610,R,ugm-3 (Ref.eq),36.79223,R,ugm-3,59.09864,R,ugm-3,116.12700,R,ugm-3,6.000,R,ugm-3 (BAM)
04-01-2013,14:00,18.017,R,ugm-3 (Ref.eq),42.94204,R,ugm-3,70.68696,R,ugm-3,136.85611,R,ugm-3,7.000,R,ugm-3 (BAM)
04-01-2013,15:00,18.017,R,ugm-3 (Ref.eq),46.35466,R,ugm-3,73.98411,R,ugm-3,145.26872,R,ugm-3,9.000,R,ugm-3 (BAM)
04-01-2013,16:00,25.544,R,ugm-3 (Ref.eq),76.39276,R,ugm-3,115.39690,R,ugm-3,231.53920,R,ugm-3,11.000,R,ugm-3 (BAM)
04-01-2013,17:00,25.544,R,ugm-3 (Ref.eq),76.25057,R,ugm-3,116.22836,R,ugm-3,232.14403,R,ugm-3,13.000,R,ugm-3 (BAM)
04-01-2013,18:00,26.561,R,ugm-3 (Ref.eq),74.15323,R,ugm-3,109.40887,R,ugm-3,222.24684,R,ugm-3,14.000,R,ugm-3 (BAM)
04-01-2013,19:00,23.103,R,ugm-3 (Ref.eq),56.52140,R,ugm-3,88.10888,R,ugm-3,174.57539,R,ugm-3,16.000,R,ugm-3 (BAM)
04-01-2013,20:00,24.120,R,ugm-3 (Ref.eq),34.19722,R,ugm-3,81.47489,R,ugm-3,134.27184,R,ugm-3,12.000,R,ugm-3 (BAM)
04-01-2013,21:00,21.272,R,ugm-3 (Ref.eq),18.87602,R,ugm-3,49.49646,R,ugm-3,79.56239,R,ugm-3,11.000,R,ugm-3 (BAM)
04-01-2013,22:00,14.151,R,ugm-3 (Ref.eq),7.10961,R,ugm-3,34.58995,R,ugm-3,47.06663,R,ugm-3,8.000,R,ugm-3 (BAM)
04-01-2013,23:00,9.065,R,ugm-3 (Ref.eq),5.54550,R,ugm-3,22.82808,R,ugm-3,33.10059,R,ugm-3,5.000,R,ugm-3 (BAM)
04-01-2013,24:00,8.862,R,ugm-3 (Ref.eq),6.46975,R,ugm-3,25.81540,R,ugm-3,37.44436,R,ugm-3,2.000,R,ugm-3 (BAM)
05-01-2013,01:00,8.048,R,ugm-3 (Ref.eq),9.10030,R,ugm-3,39.71498,R,ugm-3,55.13100,R,ugm-3,3.000,R,ugm-3 (BAM)
05-01-2013,02:00,9.472,R,ugm-3 (Ref.eq),4.51460,R,ugm-3,33.66287,R,ugm-3,42.22800,R,ugm-3,5.000,R,ugm-3 (BAM)
05-01-2013,03:00,10.286,R,ugm-3 (Ref.eq),4.58570,R,ugm-3,25.63802,R,ugm-3,34.42022,R,ugm-3,7.000,R,ugm-3 (BAM)
05-01-2013,04:00,13.134,R,ugm-3 (Ref.eq),8.78037,R,ugm-3,32.41879,R,ugm-3,47.45152,R,ugm-3,8.000,R,ugm-3 (BAM)
05-01-2013,05:00,11.507,R,ugm-3 (Ref.eq),3.83919,R,ugm-3,20.37147,R,ugm-3,28.09702,R,ugm-3,5.000,R,ugm-3 (BAM)
05-01-2013,06:00,15.779,R,ugm-3 (Ref.eq),7.14516,R,ugm-3,20.98873,R,ugm-3,33.70542,R,ugm-3,6.000,R,ugm-3 (BAM)
05-01-2013,07:00,16.593,R,ugm-3 (Ref.eq),15.53450,R,ugm-3,42.02097,R,ugm-3,67.13592,R,ugm-3,9.000,R,ugm-3 (BAM)
05-01-2013,08:00,21.679,R,ugm-3 (Ref.eq),33.84174,R,ugm-3,59.32958,R,ugm-3,111.89320,R,ugm-3,10.000,R,ugm-3 (BAM)
05-01-2013,09:00,23.713,R,ugm-3 (Ref.eq),43.33307,R,ugm-3,68.80506,R,ugm-3,135.59147,R,ugm-3,13.000,R,ugm-3 (BAM)
05-01-2013,10:00,23.510,R,ugm-3 (Ref.eq),47.56329,R,ugm-3,71.90761,R,ugm-3,145.04878,R,ugm-3,17.000,R,ugm-3 (BAM)
05-01-2013,11:00,28.392,R,ugm-3 (Ref.eq),43.01314,R,ugm-3,76.98864,R,ugm-3,143.17931,R,ugm-3,11.000,R,ugm-3 (BAM)
05-01-2013,12:00,25.137,R,ugm-3 (Ref.eq),25.70124,R,ugm-3,52.13236,R,ugm-3,92.48372,R,ugm-3,10.000,R,ugm-3 (BAM)
05-01-2013,13:00,16.186,R,ugm-3 (Ref.eq),23.03514,R,ugm-3,43.50938,R,ugm-3,79.94728,R,ugm-3,7.000,R,ugm-3 (BAM)
05-01-2013,14:00,17.813,R,ugm-3 (Ref.eq),27.94077,R,ugm-3,54.44075,R,ugm-3,98.14711,R,ugm-3,8.000,R,ugm-3 (BAM)
05-01-2013,15:00,14.151,R,ugm-3 (Ref.eq),17.98731,R,ugm-3,42.27390,R,ugm-3,71.09480,R,ugm-3,8.000,R,ugm-3 (BAM)
05-01-2013,16:00,18.220,R,ugm-3 (Ref.eq),24.74144,R,ugm-3,44.01523,R,ugm-3,83.02641,R,ugm-3,9.000,R,ugm-3 (BAM)
05-01-2013,17:00,17.813,R,ugm-3 (Ref.eq),25.77234,R,ugm-3,50.07260,R,ugm-3,90.55927,R,ugm-3,12.000,R,ugm-3 (BAM)
05-01-2013,18:00,22.086,R,ugm-3 (Ref.eq),31.70886,R,ugm-3,68.51005,R,ugm-3,117.72155,R,ugm-3,12.000,R,ugm-3 (BAM)
05-01-2013,19:00,19.441,R,ugm-3 (Ref.eq),18.98266,R,ugm-3,53.62554,R,ugm-3,83.79619,R,ugm-3,13.000,R,ugm-3 (BAM)
05-01-2013,20:00,25.951,R,ugm-3 (Ref.eq),23.39062,R,ugm-3,53.44529,R,ugm-3,90.28434,R,ugm-3,12.000,R,ugm-3 (BAM)
05-01-2013,21:00,25.951,R,ugm-3 (Ref.eq),15.10792,R,ugm-3,46.29876,R,ugm-3,70.70991,R,ugm-3,13.000,R,ugm-3 (BAM)
05-01-2013,22:00,22.696,R,ugm-3 (Ref.eq),12.61956,R,ugm-3,45.15221,R,ugm-3,65.81630,R,ugm-3,13.000,R,ugm-3 (BAM)
05-01-2013,23:00,22.899,R,ugm-3 (Ref.eq),8.42489,R,ugm-3,34.02290,R,ugm-3,48.49622,R,ugm-3,10.000,R,ugm-3 (BAM)
05-01-2013,24:00,26.765,R,ugm-3 (Ref.eq),8.99366,R,ugm-3,38.61433,R,ugm-3,53.88469,R,ugm-3,11.000,R,ugm-3 (BAM)
06-01-2013,01:00,27.986,R,ugm-3 (Ref.eq),4.50275,R,ugm-3,17.94435,R,ugm-3,26.68575,R,ugm-3,9.000,R,ugm-3 (BAM)
06-01-2013,02:00,23.103,R,ugm-3 (Ref.eq),2.91494,R,ugm-3,10.48433,R,ugm-3,16.93519,R,ugm-3,7.000,R,ugm-3 (BAM)
06-01-2013,03:00,21.475,R,ugm-3 (Ref.eq),2.91494,R,ugm-3,8.02915,R,ugm-3,14.51588,R,ugm-3,8.000,R,ugm-3 (BAM)
06-01-2013,04:00,24.323,R,ugm-3 (Ref.eq),2.87939,R,ugm-3,8.64163,R,ugm-3,15.06572,R,ugm-3,8.000,R,ugm-3 (BAM)
06-01-2013,05:00,22.899,R,ugm-3 (Ref.eq),1.42192,R,ugm-3,7.36073,R,ugm-3,11.60170,R,ugm-3,7.000,R,ugm-3 (BAM)
06-01-2013,06:00,21.679,R,ugm-3 (Ref.eq),1.91960,R,ugm-3,6.43078,R,ugm-3,11.43675,R,ugm-3,8.000,R,ugm-3 (BAM)
06-01-2013,07:00,19.034,R,ugm-3 (Ref.eq),2.06179,R,ugm-3,11.90340,R,ugm-3,17.04516,R,ugm-3,8.000,R,ugm-3 (BAM)
06-01-2013,08:00,18.220,R,ugm-3 (Ref.eq),6.96742,R,ugm-3,27.53809,R,ugm-3,39.86367,R,ugm-3,7.000,R,ugm-3 (BAM)
06-01-2013,09:00,19.034,R,ugm-3 (Ref.eq),15.03683,R,ugm-3,44.34705,R,ugm-3,68.62050,R,ugm-3,5.000,R,ugm-3 (BAM)
06-01-2013,10:00,12.524,R,ugm-3 (Ref.eq),21.11554,R,ugm-3,48.47327,R,ugm-3,81.87173,R,ugm-3,7.000,R,ugm-3 (BAM)
06-01-2013,11:00,24.323,R,ugm-3 (Ref.eq),23.88829,R,ugm-3,48.68556,R,ugm-3,86.27048,R,ugm-3,12.000,R,ugm-3 (BAM)
06-01-2013,12:00,22.086,R,ugm-3 (Ref.eq),25.80788,R,ugm-3,53.27460,R,ugm-3,93.69338,R,ugm-3,12.000,R,ugm-3 (BAM)
06-01-2013,13:00,25.747,R,ugm-3 (Ref.eq),26.30556,R,ugm-3,50.55837,R,ugm-3,91.76892,R,ugm-3,16.000,R,ugm-3 (BAM)
06-01-2013,14:00,25.747,R,ugm-3 (Ref.eq),21.86205,R,ugm-3,42.02814,R,ugm-3,76.64822,R,ugm-3,12.000,R,ugm-3 (BAM)
06-01-2013,15:00,18.220,R,ugm-3 (Ref.eq),18.02286,R,ugm-3,40.82901,R,ugm-3,69.66520,R,ugm-3,11.000,R,ugm-3 (BAM)
06-01-2013,16:00,23.713,R,ugm-3 (Ref.eq),18.23615,R,ugm-3,42.28681,R,ugm-3,71.42470,R,ugm-3,8.000,R,ugm-3 (BAM)
06-01-2013,17:00,14.762,R,ugm-3 (Ref.eq),24.27932,R,ugm-3,50.42976,R,ugm-3,88.57983,R,ugm-3,7.000,R,ugm-3 (BAM)
06-01-2013,18:00,9.065,R,ugm-3 (Ref.eq),24.77699,R,ugm-3,52.79169,R,ugm-3,91.65895,R,ugm-3,6.000,R,ugm-3 (BAM)
06-01-2013,19:00,12.727,R,ugm-3 (Ref.eq),15.74779,R,ugm-3,38.51393,R,ugm-3,63.94683,R,ugm-3,6.000,R,ugm-3 (BAM)
06-01-2013,20:00,13.744,R,ugm-3 (Ref.eq),15.17902,R,ugm-3,47.25357,R,ugm-3,71.69963,R,ugm-3,6.000,R,ugm-3 (BAM)
06-01-2013,21:00,13.541,R,ugm-3 (Ref.eq),11.05544,R,ugm-3,39.12449,R,ugm-3,57.45867,R,ugm-3,8.000,R,ugm-3 (BAM)
06-01-2013,22:00,12.524,R,ugm-3 (Ref.eq),7.57174,R,ugm-3,38.43982,R,ugm-3,51.52036,R,ugm-3,6.000,R,ugm-3 (BAM)
06-01-2013,23:00,10.693,R,ugm-3 (Ref.eq),7.46509,R,ugm-3,35.36786,R,ugm-3,48.33127,R,ugm-3,6.000,R,ugm-3 (BAM)
06-01-2013,24:00,8.862,R,ugm-3 (Ref.eq),3.30597,R,ugm-3,14.23665,R,ugm-3,21.22397,R,ugm-3,6.000,R,ugm-3 (BAM)
07-01-2013,01:00,7.641,R,ugm-3 (Ref.eq),5.21371,R,ugm-3,19.75549,R,ugm-3,29.54494,R,ugm-3,2.000,R,ugm-3 (BAM)
07-01-2013,02:00,6.624,R,ugm-3 (Ref.eq),1.24418,R,ugm-3,5.90389,R,ugm-3,9.89719,R,ugm-3,0.000,R,ugm-3 (BAM)
07-01-2013,03:00,3.979,R,ugm-3 (Ref.eq),1.13754,R,ugm-3,4.72866,R,ugm-3,8.57756,R,ugm-3,1.000,R,ugm-3 (BAM)
07-01-2013,04:00,5.403,R,ugm-3 (Ref.eq),1.49302,R,ugm-3,6.52641,R,ugm-3,10.88691,R,ugm-3,-1.000,R,ugm-3 (BAM)
07-01-2013,05:00,7.641,R,ugm-3 (Ref.eq),1.88405,R,ugm-3,8.21514,R,ugm-3,13.14127,R,ugm-3,0.000,R,ugm-3 (BAM)
07-01-2013,06:00,7.235,R,ugm-3 (Ref.eq),6.07872,R,ugm-3,12.71908,R,ugm-3,23.91820,R,ugm-3,1.000,R,ugm-3 (BAM)
07-01-2013,07:00,6.421,R,ugm-3 (Ref.eq),14.78799,R,ugm-3,35.68964,R,ugm-3,59.71303,R,ugm-3,0.000,R,ugm-3 (BAM)
07-01-2013,08:00,8.862,R,ugm-3 (Ref.eq),45.11048,R,ugm-3,54.42258,R,ugm-3,123.98977,R,ugm-3,3.000,R,ugm-3 (BAM)
07-01-2013,09:00,14.151,R,ugm-3 (Ref.eq),76.42831,R,ugm-3,90.09788,R,ugm-3,206.46633,R,ugm-3,6.000,R,ugm-3 (BAM)
07-01-2013,10:00,13.744,R,ugm-3 (Ref.eq),54.45961,R,ugm-3,65.75414,R,ugm-3,149.28258,R,ugm-3,4.000,R,ugm-3 (BAM)
07-01-2013,11:00,14.355,R,ugm-3 (Ref.eq),41.12909,R,ugm-3,65.15792,R,ugm-3,128.55347,R,ugm-3,6.000,R,ugm-3 (BAM)
07-01-2013,12:00,18.423,R,ugm-3 (Ref.eq),38.46299,R,ugm-3,50.61001,R,ugm-3,110.18869,R,ugm-3,9.000,R,ugm-3 (BAM)
07-01-2013,13:00,21.272,R,ugm-3 (Ref.eq),32.24208,R,ugm-3,50.32839,R,ugm-3,100.51144,R,ugm-3,9.000,R,ugm-3 (BAM)
07-01-2013,14:00,23.307,R,ugm-3 (Ref.eq),33.34407,R,ugm-3,60.69032,R,ugm-3,112.38806,R,ugm-3,8.000,R,ugm-3 (BAM)
07-01-2013,15:00,29.410,R,ugm-3 (Ref.eq),32.49092,R,ugm-3,50.67217,R,ugm-3,101.22623,R,ugm-3,9.000,R,ugm-3 (BAM)
07-01-2013,16:00,27.782,R,ugm-3 (Ref.eq),35.79689,R,ugm-3,55.53470,R,ugm-3,111.01345,R,ugm-3,11.000,R,ugm-3 (BAM)
07-01-2013,17:00,27.986,R,ugm-3 (Ref.eq),45.96363,R,ugm-3,75.32190,R,ugm-3,145.87355,R,ugm-3,16.000,R,ugm-3 (BAM)
07-01-2013,18:00,25.951,R,ugm-3 (Ref.eq),47.13671,R,ugm-3,71.96068,R,ugm-3,144.33398,R,ugm-3,11.000,R,ugm-3 (BAM)
07-01-2013,19:00,24.731,R,ugm-3 (Ref.eq),35.12147,R,ugm-3,68.62241,R,ugm-3,122.89008,R,ugm-3,12.000,R,ugm-3 (BAM)
07-01-2013,20:00,26.358,R,ugm-3 (Ref.eq),15.78333,R,ugm-3,49.39605,R,ugm-3,74.72377,R,ugm-3,18.000,R,ugm-3 (BAM)
07-01-2013,21:00,26.358,R,ugm-3 (Ref.eq),22.53746,R,ugm-3,51.42665,R,ugm-3,86.93030,R,ugm-3,16.000,R,ugm-3 (BAM)
07-01-2013,22:00,24.731,R,ugm-3 (Ref.eq),13.18833,R,ugm-3,50.13906,R,ugm-3,71.53467,R,ugm-3,14.000,R,ugm-3 (BAM)
07-01-2013,23:00,25.951,R,ugm-3 (Ref.eq),4.58570,R,ugm-3,34.81658,R,ugm-3,43.43766,R,ugm-3,12.000,R,ugm-3 (BAM)
07-01-2013,24:00,19.644,R,ugm-3 (Ref.eq),3.05713,R,ugm-3,32.41783,R,ugm-3,38.76398,R,ugm-3,8.000,R,ugm-3 (BAM)
08-01-2013,01:00,21.068,R,ugm-3 (Ref.eq),2.36987,R,ugm-3,31.21328,R,ugm-3,36.50963,R,ugm-3,7.000,R,ugm-3 (BAM)
08-01-2013,02:00,19.034,R,ugm-3 (Ref.eq),1.06644,R,ugm-3,4.95433,R,ugm-3,8.68753,R,ugm-3,7.000,R,ugm-3 (BAM)
08-01-2013,03:00,23.713,R,ugm-3 (Ref.eq),0.85315,R,ugm-3,3.27181,R,ugm-3,6.70809,R,ugm-3,8.000,R,ugm-3 (BAM)
08-01-2013,04:00,23.917,R,ugm-3 (Ref.eq),1.06644,R,ugm-3,3.78197,R,ugm-3,7.53286,R,ugm-3,10.000,R,ugm-3 (BAM)
08-01-2013,05:00,23.307,R,ugm-3 (Ref.eq),2.45282,R,ugm-3,9.13936,R,ugm-3,14.90077,R,ugm-3,9.000,R,ugm-3 (BAM)
08-01-2013,06:00,22.492,R,ugm-3 (Ref.eq),8.38934,R,ugm-3,23.21201,R,ugm-3,37.71928,R,ugm-3,8.000,R,ugm-3 (BAM)
08-01-2013,07:00,20.865,R,ugm-3 (Ref.eq),9.98900,R,ugm-3,28.80129,R,ugm-3,45.63703,R,ugm-3,8.000,R,ugm-3 (BAM)
08-01-2013,08:00,24.527,R,ugm-3 (Ref.eq),43.54636,R,ugm-3,63.34822,R,ugm-3,130.31297,R,ugm-3,10.000,R,ugm-3 (BAM)
08-01-2013,09:00,28.189,R,ugm-3 (Ref.eq),72.66021,R,ugm-3,96.94702,R,ugm-3,207.34608,R,ugm-3,18.000,R,ugm-3 (BAM)
08-01-2013,10:00,33.072,R,ugm-3 (Ref.eq),67.89678,R,ugm-3,89.50787,R,ugm-3,192.83020,R,ugm-3,14.000,R,ugm-3 (BAM)
08-01-2013,11:00,28.596,R,ugm-3 (Ref.eq),65.12403,R,ugm-3,81.41704,R,ugm-3,180.67866,R,ugm-3,13.000,R,ugm-3 (BAM)
08-01-2013,12:00,25.747,R,ugm-3 (Ref.eq),48.62973,R,ugm-3,79.06514,R,ugm-3,153.46139,R,ugm-3,12.000,R,ugm-3 (BAM)
08-01-2013,13:00,24.731,R,ugm-3 (Ref.eq),56.02373,R,ugm-3,92.35510,R,ugm-3,177.70950,R,ugm-3,12.000,R,ugm-3 (BAM)
08-01-2013,14:00,21.679,R,ugm-3 (Ref.eq),44.93274,R,ugm-3,70.10221,R,ugm-3,139.05548,R,ugm-3,13.000,R,ugm-3 (BAM)
08-01-2013,15:00,13.338,R,ugm-3 (Ref.eq),49.94501,R,ugm-3,61.18805,R,ugm-3,137.84583,R,ugm-3,11.000,R,ugm-3 (BAM)
08-01-2013,16:00,11.100,R,ugm-3 (Ref.eq),22.46637,R,ugm-3,44.06974,R,ugm-3,79.50741,R,ugm-3,10.000,R,ugm-3 (BAM)
08-01-2013,17:00,11.710,R,ugm-3 (Ref.eq),42.76430,R,ugm-3,70.02045,R,ugm-3,135.70144,R,ugm-3,9.000,R,ugm-3 (BAM)
08-01-2013,18:00,19.238,R,ugm-3 (Ref.eq),48.06096,R,ugm-3,86.07971,R,ugm-3,159.50967,R,ugm-3,19.000,R,ugm-3 (BAM)
08-01-2013,19:00,8.659,R,ugm-3 (Ref.eq),5.61659,R,ugm-3,31.87564,R,ugm-3,42.06305,R,ugm-3,0.000,R,ugm-3 (BAM)
08-01-2013,20:00,7.031,R,ugm-3 (Ref.eq),1.88405,R,ugm-3,15.70736,R,ugm-3,20.50917,R,ugm-3,3.000,R,ugm-3 (BAM)
08-01-2013,21:00,8.048,R,ugm-3 (Ref.eq),15.14347,R,ugm-3,49.71400,R,ugm-3,74.00897,R,ugm-3,6.000,R,ugm-3 (BAM)
08-01-2013,22:00,7.641,R,ugm-3 (Ref.eq),1.70631,R,ugm-3,18.10229,R,ugm-3,22.59858,R,ugm-3,5.000,R,ugm-3 (BAM)
08-01-2013,23:00,6.217,R,ugm-3 (Ref.eq),0.92425,R,ugm-3,8.91416,R,ugm-3,12.37148,R,ugm-3,3.000,R,ugm-3 (BAM)
08-01-2013,24:00,9.879,R,ugm-3 (Ref.eq),0.74651,R,ugm-3,4.99784,R,ugm-3,8.24766,R,ugm-3,5.000,R,ugm-3 (BAM)
09-01-2013,01:00,10.083,R,ugm-3 (Ref.eq),0.37918,R,ugm-3,6.26918,R,ugm-3,8.94413,R,ugm-3,6.000,R,ugm-3 (BAM)
09-01-2013,02:00,7.031,R,ugm-3 (Ref.eq),1.06644,R,ugm-3,5.73654,R,ugm-3,9.45731,R,ugm-3,4.000,R,ugm-3 (BAM)
09-01-2013,03:00,5.607,R,ugm-3 (Ref.eq),1.17309,R,ugm-3,8.69996,R,ugm-3,12.53644,R,ugm-3,4.000,R,ugm-3 (BAM)
09-01-2013,04:00,6.217,R,ugm-3 (Ref.eq),3.23487,R,ugm-3,15.98181,R,ugm-3,22.81852,R,ugm-3,1.000,R,ugm-3 (BAM)
09-01-2013,05:00,8.862,R,ugm-3 (Ref.eq),12.83285,R,ugm-3,41.36164,R,ugm-3,62.29730,R,ugm-3,1.000,R,ugm-3 (BAM)
09-01-2013,06:00,8.659,R,ugm-3 (Ref.eq),14.78799,R,ugm-3,36.01859,R,ugm-3,59.98795,R,ugm-3,1.000,R,ugm-3 (BAM)
09-01-2013,07:00,9.472,R,ugm-3 (Ref.eq),37.50319,R,ugm-3,68.70608,R,ugm-3,126.46406,R,ugm-3,1.000,R,ugm-3 (BAM)
09-01-2013,08:00,15.169,R,ugm-3 (Ref.eq),103.01825,R,ugm-3,86.41870,R,ugm-3,242.81100,R,ugm-3,7.000,R,ugm-3 (BAM)
09-01-2013,09:00,21.679,R,ugm-3 (Ref.eq),159.46855,R,ugm-3,117.52791,R,ugm-3,358.66308,R,ugm-3,12.000,R,ugm-3 (BAM)
09-01-2013,10:00,22.696,R,ugm-3 (Ref.eq),155.94930,R,ugm-3,126.88959,R,ugm-3,362.56697,R,ugm-3,13.000,R,ugm-3 (BAM)
09-01-2013,11:00,23.713,R,ugm-3 (Ref.eq),102.69832,R,ugm-3,100.87051,R,ugm-3,256.55709,R,ugm-3,13.000,R,ugm-3 (BAM)
09-01-2013,12:00,14.762,R,ugm-3 (Ref.eq),38.49854,R,ugm-3,67.57054,R,ugm-3,126.84895,R,ugm-3,12.000,R,ugm-3 (BAM)
09-01-2013,13:00,17.407,R,ugm-3 (Ref.eq),29.78927,R,ugm-3,51.04702,R,ugm-3,97.43231,R,ugm-3,11.000,R,ugm-3 (BAM)
09-01-2013,14:00,19.034,R,ugm-3 (Ref.eq),42.23108,R,ugm-3,53.91720,R,ugm-3,119.04117,R,ugm-3,8.000,R,ugm-3 (BAM)
09-01-2013,15:00,29.206,R,ugm-3 (Ref.eq),78.91667,R,ugm-3,87.57720,R,ugm-3,207.56602,R,ugm-3,10.000,R,ugm-3 (BAM)
09-01-2013,16:00,32.665,R,ugm-3 (Ref.eq),106.14648,R,ugm-3,97.37063,R,ugm-3,258.31659,R,ugm-3,18.000,R,ugm-3 (BAM)
09-01-2013,17:00,41.006,R,ugm-3 (Ref.eq),135.22478,R,ugm-3,110.19299,R,ugm-3,314.84053,R,ugm-3,23.000,R,ugm-3 (BAM)
09-01-2013,18:00,34.495,R,ugm-3 (Ref.eq),115.99329,R,ugm-3,113.32184,R,ugm-3,288.88791,R,ugm-3,22.000,R,ugm-3 (BAM)
09-01-2013,19:00,45.075,R,ugm-3 (Ref.eq),207.06739,R,ugm-3,139.48054,R,ugm-3,452.13652,R,ugm-3,31.000,R,ugm-3 (BAM)
09-01-2013,20:00,23.103,R,ugm-3 (Ref.eq),101.38304,R,ugm-3,85.85404,R,ugm-3,239.78686,R,ugm-3,15.000,R,ugm-3 (BAM)